Flag Weather past 2 weeks in Charleroi, Belgium

Now
39 °F

Clear.


Feels Like: 34 °F
Forecast: 37 / 47 °F
Wind: 7 mph from Northeast

Location: Charleroi / Gosselies

Current Time: Nov 24, 2014 at 9:25:06 PM

Latest Report: Nov 24, 2014 at 8:50 PM


Visibility: 10 mi

Pressure: 30.30 "Hg

Humidity: 93%

Dew point: 37 °F

Location of CharleroiLocation

Historic Weather in Charleroi — Graph

°F

Charleroi temperature yesterday

Maximum temperature yesterday: 59 °F (at 12:50 PM)
Minimum temperature yesterday: 48 °F (at 5:20 AM)
Average temperature yesterday: 54 °F

Past Weeks' High & Low Weather Summary

 TemperatureHumidityPressure
High59 °F (Nov 11, 1:20 PM)100% (Nov 10, 4:50 AM)30.30 "Hg (Nov 10, 4:50 AM)
Low34 °F (Nov 21, 3:20 AM)68% (Nov 11, 1:20 PM)29.50 "Hg (Nov 16, 2:20 PM)
Average47 °F89%29.85 "Hg
* Reported Nov 9 7:20 PM — Nov 24 7:50 PM, Charleroi, Weather by CustomWeather, © 2014

Note: Actual official high and low records may vary slightly from our data, if they occured in-between our weather recording intervals... More about our weather records

Advertising

Charleroi weather history for previous 24 hours

 ConditionsComfort  
Time TempWeatherWind HumidityBarometerVisibility
7:50 PM
Nov 24
41 °FClear.6 mph87%30.30 "Hg10 mi
7:20 PM41 °FClear.8 mph87%30.30 "Hg10 mi
6:50 PM43 °FClear.7 mph87%30.30 "Hg10 mi
6:20 PM43 °FClear.5 mph87%30.30 "Hg10 mi
5:50 PM43 °FPassing clouds.6 mph87%30.30 "HgN/A
5:20 PM43 °FPassing clouds.8 mph87%30.30 "HgN/A
4:50 PM43 °FPassing clouds.7 mph87%30.30 "HgN/A
4:20 PM45 °FPassing clouds.6 mph81%30.30 "HgN/A
3:50 PM45 °FPassing clouds.7 mph87%30.30 "HgN/A
3:20 PM48 °FPassing clouds.6 mph76%30.30 "HgN/A
2:50 PM48 °FPassing clouds.6 mph71%30.27 "HgN/A
2:20 PM48 °FPassing clouds.7 mph76%30.27 "HgN/A
1:50 PM48 °FPassing clouds.6 mph76%30.30 "HgN/A
1:20 PM48 °FPassing clouds.8 mph76%30.30 "HgN/A
12:50 PM48 °FScattered clouds.8 mph76%30.30 "HgN/A
12:20 PM48 °FScattered clouds.7 mph82%30.27 "HgN/A
11:50 AM48 °FPassing clouds.7 mph76%30.30 "HgN/A
11:20 AM48 °FPassing clouds.7 mph82%30.30 "HgN/A
10:50 AM46 °FPassing clouds.5 mph87%30.30 "HgN/A
10:20 AM46 °FPassing clouds.5 mph87%30.27 "HgN/A
9:50 AM45 °FPassing clouds.5 mph93%30.27 "HgN/A
9:20 AM45 °FPassing clouds.3 mph93%30.27 "HgN/A
8:50 AM45 °FPassing clouds.6 mph93%30.24 "HgN/A
8:20 AM45 °FPartly sunny.6 mph93%30.24 "Hg10 mi
7:50 AM46 °FPassing clouds.6 mph93%30.21 "HgN/A
7:20 AM46 °FPassing clouds.6 mph87%30.21 "HgN/A
6:50 AM46 °FPassing clouds.7 mph93%30.21 "HgN/A
6:20 AM46 °FPassing clouds.8 mph93%30.18 "HgN/A
5:50 AM46 °FPassing clouds.8 mph93%30.18 "HgN/A
5:20 AM46 °FPartly cloudy.6 mph93%30.18 "HgN/A
4:50 AM46 °FPartly cloudy.7 mph93%30.15 "HgN/A
3:50 AM48 °FPassing clouds.7 mph94%30.12 "HgN/A
3:20 AM48 °FPassing clouds.5 mph94%30.12 "HgN/A
2:50 AM48 °FPassing clouds.6 mph94%30.09 "HgN/A
2:20 AM48 °FLight rain. Passing clouds.5 mph94%30.09 "HgN/A
1:50 AM48 °FPassing clouds.6 mph94%30.09 "Hg4 mi
1:20 AM48 °FPassing clouds.6 mph94%30.09 "Hg4 mi
12:50 AM48 °FPassing clouds.8 mph100%30.07 "Hg4 mi
12:20 AM48 °FFog.10 mph100%30.07 "Hg2 mi
11:50 PM
Nov 23
50 °FDrizzle. Fog.9 mph100%30.04 "Hg1 mi
11:20 PM52 °FFog.8 mph100%30.04 "Hg2 mi
10:50 PM54 °FPartly cloudy.7 mph94%30.01 "HgN/A
10:20 PM55 °FSprinkles. Partly cloudy.9 mph88%30.01 "Hg6 mi
9:50 PM55 °FPassing clouds.9 mph88%30.01 "HgN/A
9:20 PM55 °FPassing clouds.10 mph88%29.98 "HgN/A
Weather by CustomWeather, © 2014

See weather overviewHow to use our weather pages